GAP2014 RPLL-RPUT

Flight info

Callsign GAP2014
Flight time 0h 51m
Altitude 21000
Route CAB2R CAB W1 CUY CUY1R
Aircraft A320/M-SDE3FGHIRWY/LB1

Departure

Time 2026-05-08 03:25
Airport Ninoy Aquino International Airport (RPLL)

Arrival

Time 2026-05-08 04:16
Airport Tuguegarao Airport (RPUT)
Time Latitude Longitude Altitude Speed Heading
2026-05-08 03:07 14.51026 121.01407 64 ft 0 kts 226°
2026-05-08 03:15 14.51034 121.01416 59 ft 4 kts 226°
2026-05-08 03:15 14.51046 121.01429 62 ft 4 kts 226°
2026-05-08 03:16 14.51065 121.01448 59 ft 4 kts 218°
2026-05-08 03:16 14.51086 121.01457 61 ft 4 kts 163°
2026-05-08 03:16 14.51104 121.01447 62 ft 0 kts 134°
2026-05-08 03:16 14.51091 121.01460 58 ft 4 kts 134°
2026-05-08 03:17 14.51072 121.01480 61 ft 4 kts 134°
2026-05-08 03:17 14.51053 121.01500 68 ft 4 kts 134°
2026-05-08 03:17 14.51034 121.01520 58 ft 4 kts 134°
2026-05-08 03:17 14.51015 121.01540 66 ft 4 kts 134°
2026-05-08 03:18 14.51006 121.01549 61 ft 0 kts 134°
2026-05-08 03:20 14.50990 121.01566 68 ft 9 kts 135°
2026-05-08 03:20 14.50925 121.01635 62 ft 15 kts 135°
2026-05-08 03:20 14.50882 121.01668 64 ft 0 kts 161°
2026-05-08 03:20 14.50875 121.01670 63 ft 4 kts 170°
2026-05-08 03:21 14.50828 121.01606 68 ft 14 kts 239°
2026-05-08 03:21 14.50784 121.01527 60 ft 12 kts 240°
2026-05-08 03:21 14.50732 121.01431 66 ft 24 kts 240°
2026-05-08 03:21 14.50649 121.01284 69 ft 25 kts 240°
2026-05-08 03:22 14.50561 121.01126 64 ft 26 kts 240°
2026-05-08 03:22 14.50469 121.00961 65 ft 27 kts 240°
2026-05-08 03:22 14.50372 121.00786 66 ft 29 kts 240°
2026-05-08 03:22 14.50270 121.00603 60 ft 30 kts 240°
2026-05-08 03:23 14.50164 121.00413 68 ft 31 kts 240°
2026-05-08 03:23 14.50055 121.00218 64 ft 32 kts 240°
2026-05-08 03:23 14.49945 121.00020 65 ft 29 kts 239°
2026-05-08 03:23 14.49846 120.99982 67 ft 17 kts 149°
2026-05-08 03:24 14.49823 121.00076 66 ft 19 kts 59°
2026-05-08 03:24 14.50001 121.00398 67 ft 86 kts 59°
2026-05-08 03:24 14.50400 121.01114 71 ft 142 kts 60°
2026-05-08 03:24 14.50950 121.02109 291 ft 167 kts 63°
2026-05-08 03:25 14.51528 121.03154 925 ft 168 kts 63°
2026-05-08 03:25 14.52110 121.04202 1628 ft 168 kts 62°
2026-05-08 03:25 14.52705 121.05279 2044 ft 182 kts 62°
2026-05-08 03:25 14.53375 121.06486 2313 ft 205 kts 61°
2026-05-08 03:26 14.54128 121.07841 2554 ft 230 kts 62°
2026-05-08 03:26 14.54964 121.09353 2934 ft 253 kts 61°
2026-05-08 03:26 14.55851 121.10927 3655 ft 260 kts 57°
2026-05-08 03:26 14.57091 121.12298 4475 ft 265 kts 38°
2026-05-08 03:27 14.58738 121.13185 5298 ft 271 kts 19°
2026-05-08 03:27 14.60628 121.13461 6093 ft 279 kts
2026-05-08 03:27 14.62580 121.13457 6855 ft 282 kts
2026-05-08 03:27 14.64551 121.13459 7616 ft 285 kts
2026-05-08 03:28 14.66546 121.13469 8381 ft 288 kts
2026-05-08 03:28 14.68561 121.13483 9129 ft 291 kts
2026-05-08 03:28 14.70587 121.13291 9869 ft 297 kts 349°
2026-05-08 03:28 14.72605 121.12635 10287 ft 314 kts 343°
2026-05-08 03:29 14.74740 121.11872 10514 ft 334 kts 342°
2026-05-08 03:29 14.76964 121.11070 11046 ft 342 kts 343°
2026-05-08 03:29 14.79225 121.10252 11680 ft 346 kts 342°
2026-05-08 03:29 14.81506 121.09423 12337 ft 349 kts 342°
2026-05-08 03:30 14.86128 121.07754 13638 ft 355 kts 343°
2026-05-08 03:30 14.90912 121.06408 14718 ft 359 kts 356°
2026-05-08 03:31 14.95909 121.06062 15744 ft 366 kts 358°
2026-05-08 03:31 15.01041 121.05715 16773 ft 373 kts 358°
2026-05-08 03:32 15.03639 121.05536 17276 ft 376 kts 358°
2026-05-08 03:32 15.06263 121.05354 17774 ft 380 kts 358°
2026-05-08 03:32 15.08913 121.05169 18273 ft 383 kts 358°
2026-05-08 03:32 15.11579 121.04983 18716 ft 386 kts 358°
2026-05-08 03:33 15.14268 121.04794 19163 ft 388 kts 358°
2026-05-08 03:33 15.16970 121.04605 19628 ft 391 kts 357°
2026-05-08 03:33 15.19690 121.04416 20067 ft 393 kts 357°
2026-05-08 03:33 15.22428 121.04224 20514 ft 396 kts 357°
2026-05-08 03:34 15.25190 121.04031 20845 ft 398 kts 357°
2026-05-08 03:34 15.27954 121.03839 20921 ft 391 kts 357°
2026-05-08 03:34 15.30631 121.03653 20942 ft 381 kts 357°
2026-05-08 03:34 15.33227 121.03472 20949 ft 378 kts 357°
2026-05-08 03:35 15.35851 121.03290 20940 ft 378 kts 357°
2026-05-08 03:35 15.38479 121.03108 20940 ft 378 kts 357°
2026-05-08 03:35 15.41102 121.02925 20942 ft 378 kts 356°
2026-05-08 03:35 15.43726 121.02741 20937 ft 378 kts 357°
2026-05-08 03:36 15.46351 121.02645 20931 ft 377 kts
2026-05-08 03:36 15.48936 121.03045 20929 ft 376 kts 15°
2026-05-08 03:36 15.51388 121.03984 20939 ft 376 kts 26°
2026-05-08 03:36 15.53749 121.05164 20943 ft 376 kts 26°
2026-05-08 03:37 15.56110 121.06339 20933 ft 376 kts 26°
2026-05-08 03:37 15.58437 121.07492 20929 ft 376 kts 26°
2026-05-08 03:37 15.60827 121.08672 20947 ft 376 kts 26°
2026-05-08 03:38 15.65206 121.10836 20936 ft 375 kts 26°
2026-05-08 03:38 15.67560 121.12005 20937 ft 376 kts 26°
2026-05-08 03:38 15.69917 121.13179 20943 ft 376 kts 26°
2026-05-08 03:38 15.72273 121.14350 20944 ft 376 kts 26°
2026-05-08 03:39 15.74605 121.15509 20938 ft 376 kts 26°
2026-05-08 03:39 15.76964 121.16681 20940 ft 376 kts 26°
2026-05-08 03:39 15.79324 121.17856 20941 ft 376 kts 26°
2026-05-08 03:39 15.81680 121.19029 20958 ft 376 kts 26°
2026-05-08 03:40 15.84040 121.20203 20958 ft 376 kts 26°
2026-05-08 03:40 15.86395 121.21375 20960 ft 376 kts 26°
2026-05-08 03:40 15.88759 121.22550 20958 ft 376 kts 26°
2026-05-08 03:40 15.91117 121.23723 20964 ft 376 kts 26°
2026-05-08 03:41 15.93473 121.24895 20957 ft 376 kts 26°
2026-05-08 03:41 15.95833 121.26068 20956 ft 376 kts 26°
2026-05-08 03:41 15.98195 121.27241 20954 ft 376 kts 26°
2026-05-08 03:41 16.00553 121.28415 20953 ft 376 kts 26°
2026-05-08 03:42 16.02913 121.29592 20956 ft 376 kts 26°
2026-05-08 03:42 16.05273 121.30769 20962 ft 376 kts 26°
2026-05-08 03:42 16.07603 121.31932 20959 ft 376 kts 26°
2026-05-08 03:42 16.09962 121.33110 20962 ft 376 kts 26°
2026-05-08 03:43 16.12325 121.34288 20960 ft 376 kts 26°
2026-05-08 03:43 16.14691 121.35468 20958 ft 376 kts 26°
2026-05-08 03:43 16.17046 121.36646 20959 ft 376 kts 26°
2026-05-08 03:43 16.19407 121.37825 20958 ft 376 kts 26°
2026-05-08 03:44 16.21768 121.39006 20960 ft 376 kts 26°
2026-05-08 03:44 16.24129 121.40185 20958 ft 376 kts 26°
2026-05-08 03:44 16.26492 121.41368 20953 ft 376 kts 26°
2026-05-08 03:44 16.28852 121.42547 20952 ft 376 kts 26°
2026-05-08 03:45 16.31212 121.43723 20960 ft 376 kts 26°
2026-05-08 03:45 16.33573 121.44902 20959 ft 376 kts 26°
2026-05-08 03:45 16.35933 121.46082 20945 ft 376 kts 26°
2026-05-08 03:45 16.38296 121.47263 20943 ft 376 kts 26°
2026-05-08 03:46 16.40662 121.48445 20939 ft 376 kts 26°
2026-05-08 03:46 16.43015 121.49623 20942 ft 376 kts 26°
2026-05-08 03:46 16.45349 121.50794 20942 ft 376 kts 26°
2026-05-08 03:46 16.47707 121.51977 20934 ft 376 kts 25°
2026-05-08 03:47 16.50072 121.53158 20930 ft 377 kts 25°
2026-05-08 03:47 16.52430 121.54339 20931 ft 377 kts 26°
2026-05-08 03:47 16.54795 121.55528 20931 ft 377 kts 26°
2026-05-08 03:47 16.57182 121.56725 20935 ft 380 kts 26°
2026-05-08 03:48 16.59556 121.57917 20935 ft 378 kts 26°
2026-05-08 03:48 16.61930 121.59109 20925 ft 378 kts 26°
2026-05-08 03:48 16.64295 121.60298 20928 ft 377 kts 26°
2026-05-08 03:48 16.66662 121.61486 20925 ft 377 kts 26°
2026-05-08 03:49 16.69028 121.62673 20927 ft 377 kts 26°
2026-05-08 03:49 16.71390 121.63857 20921 ft 377 kts 25°
2026-05-08 03:49 16.73756 121.65042 20917 ft 377 kts 25°
2026-05-08 03:49 16.76123 121.66229 20919 ft 377 kts 25°
2026-05-08 03:50 16.78458 121.67404 20909 ft 377 kts 25°
2026-05-08 03:50 16.80822 121.68597 20908 ft 378 kts 25°
2026-05-08 03:50 16.83219 121.69807 20906 ft 378 kts 25°
2026-05-08 03:50 16.85549 121.70981 20910 ft 378 kts 25°
2026-05-08 03:51 16.87923 121.72174 20909 ft 378 kts 25°
2026-05-08 03:51 16.90288 121.73364 20908 ft 378 kts 25°
2026-05-08 03:51 16.92705 121.74458 20905 ft 377 kts 18°
2026-05-08 03:51 16.95255 121.75075 20904 ft 377 kts
2026-05-08 03:52 16.97863 121.75382 20903 ft 376 kts
2026-05-08 03:52 17.00465 121.75686 20904 ft 377 kts
2026-05-08 03:52 17.03075 121.75994 20914 ft 377 kts
2026-05-08 03:52 17.05680 121.76304 20903 ft 377 kts
2026-05-08 03:53 17.08251 121.76613 20904 ft 377 kts
2026-05-08 03:53 17.10861 121.76928 20905 ft 377 kts
2026-05-08 03:53 17.13482 121.77246 20914 ft 382 kts
2026-05-08 03:53 17.16098 121.77563 20887 ft 372 kts
2026-05-08 03:54 17.18622 121.77869 20753 ft 360 kts
2026-05-08 03:54 17.21096 121.77907 20476 ft 353 kts 352°
2026-05-08 03:54 17.23469 121.77326 20123 ft 349 kts 338°
2026-05-08 03:54 17.25609 121.76172 19759 ft 345 kts 324°
2026-05-08 03:55 17.27526 121.74671 19384 ft 343 kts 322°
2026-05-08 03:55 17.29425 121.73167 19013 ft 342 kts 323°
2026-05-08 03:55 17.31323 121.71669 18655 ft 340 kts 323°
2026-05-08 03:55 17.33206 121.70184 18309 ft 338 kts 323°
2026-05-08 03:56 17.35083 121.68706 17942 ft 336 kts 323°
2026-05-08 03:56 17.36949 121.67235 17555 ft 334 kts 323°
2026-05-08 03:56 17.38802 121.65777 17168 ft 333 kts 323°
2026-05-08 03:56 17.40629 121.64340 16788 ft 332 kts 323°
2026-05-08 03:57 17.42486 121.62908 16415 ft 330 kts 328°
2026-05-08 03:57 17.44538 121.61849 16057 ft 328 kts 342°
2026-05-08 03:57 17.46734 121.61270 15580 ft 324 kts 348°
2026-05-08 03:57 17.48951 121.60768 14589 ft 333 kts 349°
2026-05-08 03:58 17.51264 121.60246 13416 ft 346 kts 349°
2026-05-08 03:58 17.53662 121.59707 12133 ft 363 kts 349°
2026-05-08 03:58 17.56177 121.59139 11071 ft 375 kts 349°
2026-05-08 03:58 17.58740 121.58558 9622 ft 380 kts 349°
2026-05-08 03:59 17.61339 121.57967 8153 ft 383 kts 349°
2026-05-08 03:59 17.63668 121.57437 6970 ft 380 kts 349°
2026-05-08 04:07 17.63991 121.57364 6779 ft 375 kts 346°
2026-05-08 04:07 17.66563 121.56763 5336 ft 377 kts 346°
2026-05-08 04:08 17.69118 121.56228 4110 ft 372 kts 350°
2026-05-08 04:08 17.71619 121.55830 3456 ft 352 kts 352°
2026-05-08 04:08 17.73938 121.55529 3189 ft 325 kts 353°
2026-05-08 04:08 17.76081 121.55273 3047 ft 295 kts 353°
2026-05-08 04:09 17.78034 121.55057 2925 ft 269 kts 359°
2026-05-08 04:09 17.79785 121.55439 2943 ft 250 kts 28°
2026-05-08 04:09 17.81047 121.56552 2937 ft 230 kts 58°
2026-05-08 04:09 17.81649 121.58063 2876 ft 222 kts 83°
2026-05-08 04:10 17.81871 121.59669 2606 ft 222 kts 84°
2026-05-08 04:10 17.82080 121.61279 2329 ft 222 kts 84°
2026-05-08 04:10 17.82287 121.62883 2087 ft 222 kts 85°
2026-05-08 04:10 17.82494 121.64474 1954 ft 220 kts 84°
2026-05-08 04:11 17.82702 121.66066 1939 ft 221 kts 84°
2026-05-08 04:11 17.82912 121.67665 1938 ft 221 kts 84°
2026-05-08 04:11 17.83017 121.69264 1938 ft 218 kts 103°
2026-05-08 04:11 17.82281 121.70583 1935 ft 213 kts 145°
2026-05-08 04:12 17.80936 121.71123 1948 ft 204 kts 169°
2026-05-08 04:12 17.79584 121.71333 1974 ft 191 kts 173°
2026-05-08 04:12 17.78281 121.71477 1935 ft 183 kts 174°
2026-05-08 04:12 17.77086 121.71606 1921 ft 162 kts 174°
2026-05-08 04:13 17.76023 121.71730 1950 ft 149 kts 172°
2026-05-08 04:13 17.75013 121.71855 1956 ft 144 kts 172°
2026-05-08 04:13 17.74005 121.71984 1785 ft 149 kts 173°
2026-05-08 04:13 17.72996 121.72117 1568 ft 146 kts 173°
2026-05-08 04:14 17.72002 121.72250 1366 ft 142 kts 173°
2026-05-08 04:14 17.71039 121.72381 1194 ft 140 kts 172°
2026-05-08 04:14 17.70072 121.72515 1007 ft 140 kts 173°
2026-05-08 04:14 17.69109 121.72649 825 ft 139 kts 173°
2026-05-08 04:15 17.68153 121.72768 672 ft 138 kts 174°
2026-05-08 04:15 17.67198 121.72899 479 ft 139 kts 172°
2026-05-08 04:15 17.66236 121.73040 332 ft 139 kts 173°
2026-05-08 04:15 17.65283 121.73180 132 ft 138 kts 173°
2026-05-08 04:16 17.64438 121.73302 89 ft 92 kts 172°
2026-05-08 04:16 17.64092 121.73342 88 ft 21 kts 178°
2026-05-08 04:16 17.64023 121.73379 88 ft 6 kts 165°
2026-05-08 04:16 17.64022 121.73369 90 ft 1 kts 301°
2026-05-08 04:17 17.64052 121.73360 88 ft 12 kts 346°
2026-05-08 04:17 17.64133 121.73348 89 ft 11 kts 353°
2026-05-08 04:17 17.64216 121.73387 87 ft 19 kts 40°
2026-05-08 04:17 17.64293 121.73440 88 ft 8 kts 71°
2026-05-08 04:18 17.64294 121.73467 88 ft 2 kts 84°
2026-05-08 04:18 17.64295 121.73474 88 ft 0 kts 83°